Time,TemperatureF,DewpointF,PressureIn,WindDirection,WindDirectionDegrees,WindSpeedMPH,WindSpeedGustMPH,Humidity,HourlyPrecipIn,Conditions,Clouds,dailyrainin,SoftwareType,DateUTC
2013-12-02 00:12:00,25.0,24.0,29.99,WSW,253,0.0,0.0,95,0.00,,,0.00,,2013-12-02 06:12:00,
2013-12-02 00:22:00,25.0,24.0,29.98,WSW,253,0.0,0.0,95,0.00,,,0.00,,2013-12-02 06:22:00,
2013-12-02 00:42:00,25.0,24.0,29.99,WSW,252,0.0,0.0,95,0.00,,,0.00,,2013-12-02 06:42:00,
2013-12-02 00:52:00,25.0,24.0,29.98,WSW,253,0.0,0.0,96,0.00,,,0.00,,2013-12-02 06:52:00,
2013-12-02 01:12:00,25.0,24.0,29.98,WSW,252,0.0,0.0,96,0.00,,,0.00,,2013-12-02 07:12:00,
2013-12-02 01:21:00,25.0,24.0,29.98,WSW,253,0.0,0.0,96,0.00,,,0.00,,2013-12-02 07:21:00,
2013-12-02 01:42:00,24.0,23.0,29.97,WSW,252,0.0,0.0,96,0.00,,,0.00,,2013-12-02 07:42:00,
2013-12-02 01:52:00,24.0,23.0,29.97,WSW,253,0.0,0.0,96,0.00,,,0.00,,2013-12-02 07:52:00,
2013-12-02 02:22:00,24.0,23.0,29.98,WSW,253,0.0,0.0,96,0.00,,,0.00,,2013-12-02 08:22:00,
2013-12-02 02:42:00,24.0,23.0,29.97,WSW,253,0.0,0.0,96,0.00,,,0.00,,2013-12-02 08:42:00,
2013-12-02 02:52:00,24.0,23.0,29.96,WSW,253,0.0,0.0,96,0.00,,,0.00,,2013-12-02 08:52:00,
2013-12-02 03:11:00,23.0,22.0,29.96,WSW,253,0.0,0.0,96,0.00,,,0.00,,2013-12-02 09:11:00,
2013-12-02 03:22:00,23.0,22.0,29.96,WSW,253,0.0,0.0,96,0.00,,,0.00,,2013-12-02 09:22:00,
2013-12-02 03:43:00,22.0,21.0,29.96,WSW,253,0.0,0.0,96,0.00,,,0.00,,2013-12-02 09:43:00,
2013-12-02 03:54:00,22.0,21.0,29.96,WSW,253,0.0,0.0,96,0.00,,,0.00,,2013-12-02 09:54:00,
2013-12-02 04:23:00,22.0,21.0,29.96,WSW,253,0.0,0.0,96,0.00,,,0.00,,2013-12-02 10:23:00,
2013-12-02 04:42:00,23.0,22.0,29.95,WSW,253,0.0,0.0,96,0.00,,,0.00,,2013-12-02 10:42:00,
2013-12-02 04:52:00,23.0,22.0,29.95,WSW,253,0.0,0.0,96,0.00,,,0.00,,2013-12-02 10:52:00,
2013-12-02 05:12:00,23.0,22.0,29.95,WSW,253,0.0,0.0,96,0.00,,,0.00,,2013-12-02 11:12:00,
2013-12-02 05:22:00,23.0,22.0,29.94,WSW,252,0.0,0.0,96,0.00,,,0.00,,2013-12-02 11:22:00,
2013-12-02 05:42:00,24.0,23.0,29.94,WSW,252,0.0,0.0,96,0.00,,,0.00,,2013-12-02 11:42:00,
2013-12-02 05:53:00,24.0,23.0,29.94,WSW,253,0.0,0.0,96,0.00,,,0.00,,2013-12-02 11:53:00,
2013-12-02 06:12:00,24.0,23.0,29.94,WSW,253,0.0,0.0,96,0.00,,,0.00,,2013-12-02 12:12:00,
2013-12-02 06:22:00,24.0,23.0,29.93,WSW,252,0.0,0.0,96,0.00,,,0.00,,2013-12-02 12:22:00,
2013-12-02 06:42:00,24.0,23.0,29.93,WSW,253,0.0,0.0,96,0.00,,,0.00,,2013-12-02 12:42:00,
2013-12-02 06:52:00,24.0,23.0,29.94,WSW,253,0.0,0.0,96,0.00,,,0.00,,2013-12-02 12:52:00,
2013-12-02 07:12:00,24.0,23.0,29.93,WSW,253,0.0,0.0,96,0.00,,,0.00,,2013-12-02 13:12:00,
2013-12-02 07:22:00,24.0,23.0,29.93,WSW,253,0.0,0.0,96,0.00,,,0.00,,2013-12-02 13:22:00,
2013-12-02 07:42:00,24.0,23.0,29.93,WSW,253,0.0,0.0,96,0.00,,,0.00,,2013-12-02 13:42:00,
2013-12-02 07:52:00,24.0,23.0,29.93,WSW,253,0.0,0.0,96,0.00,,,0.00,,2013-12-02 13:52:00,
2013-12-02 08:11:00,24.0,23.0,29.93,WSW,253,0.0,0.0,96,0.00,,,0.00,,2013-12-02 14:11:00,
2013-12-02 08:22:00,24.0,23.0,29.93,WSW,253,0.0,0.0,96,0.00,,,0.00,,2013-12-02 14:22:00,
2013-12-02 08:42:00,25.0,24.0,29.93,WSW,253,0.0,0.0,96,0.00,,,0.00,,2013-12-02 14:42:00,
2013-12-02 08:52:00,25.0,24.0,29.93,WSW,255,0.0,1.0,95,0.00,,,0.00,,2013-12-02 14:52:00,
2013-12-02 09:12:00,26.0,25.0,29.93,WSW,258,0.0,1.0,94,0.00,,,0.00,,2013-12-02 15:12:00,
2013-12-02 09:21:00,27.0,25.0,29.93,West,259,0.0,0.0,93,0.00,,,0.00,,2013-12-02 15:21:00,
2013-12-02 09:43:00,28.0,26.0,29.92,NW,310,0.0,0.0,92,0.00,,,0.00,,2013-12-02 15:43:00,
2013-12-02 09:54:00,29.0,26.0,29.92,East,89,0.0,1.0,89,0.00,,,0.00,,2013-12-02 15:54:00,
2013-12-02 10:13:00,30.0,26.0,29.93,NE,53,0.0,4.0,86,0.00,,,0.00,,2013-12-02 16:13:00,
2013-12-02 10:23:00,30.0,26.0,29.92,SSW,194,0.0,3.0,85,0.00,,,0.00,,2013-12-02 16:23:00,
2013-12-02 10:42:00,31.0,27.0,29.92,SSE,150,0.0,2.0,84,0.00,,,0.00,,2013-12-02 16:42:00,
2013-12-02 10:53:00,31.0,26.0,29.92,SW,229,0.0,3.0,82,0.00,,,0.00,,2013-12-02 16:53:00,
2013-12-02 11:12:00,32.0,26.0,29.91,South,191,0.0,4.0,79,0.00,,,0.00,,2013-12-02 17:12:00,
2013-12-02 11:22:00,32.0,26.0,29.91,SE,132,0.0,3.0,79,0.00,,,0.00,,2013-12-02 17:22:00,
2013-12-02 11:42:00,32.0,26.0,29.91,North,6,1.0,4.0,77,0.00,,,0.00,,2013-12-02 17:42:00,
2013-12-02 11:53:00,32.0,25.0,29.91,West,276,0.0,2.0,76,0.00,,,0.00,,2013-12-02 17:53:00,
2013-12-02 12:12:00,32.0,25.0,29.90,SE,145,0.0,2.0,75,0.00,,,0.00,,2013-12-02 18:12:00,
2013-12-02 12:22:00,32.0,24.0,29.90,ENE,63,1.0,4.0,73,0.00,,,0.00,,2013-12-02 18:22:00,
2013-12-02 12:42:00,32.0,24.0,29.90,NNE,27,0.0,2.0,73,0.00,,,0.00,,2013-12-02 18:42:00,
2013-12-02 12:52:00,33.0,25.0,29.89,WNW,293,0.0,1.0,72,0.00,,,0.00,,2013-12-02 18:52:00,
2013-12-02 13:12:00,33.0,25.0,29.88,North,355,0.0,2.0,73,0.00,,,0.00,,2013-12-02 19:12:00,
2013-12-02 13:22:00,33.0,25.0,29.88,NNE,29,1.0,3.0,72,0.00,,,0.00,,2013-12-02 19:22:00,
2013-12-02 13:42:00,33.0,25.0,29.88,SSE,156,0.0,2.0,72,0.00,,,0.00,,2013-12-02 19:42:00,
2013-12-02 13:52:00,33.0,25.0,29.88,NE,39,0.0,2.0,72,0.00,,,0.00,,2013-12-02 19:52:00,
2013-12-02 14:02:00,33.0,25.0,29.88,NE,39,0.0,2.0,72,0.00,,,0.00,,2013-12-02 20:02:00,
2013-12-02 14:11:00,33.0,25.0,29.88,NE,39,0.0,2.0,72,0.00,,,0.00,,2013-12-02 20:11:00,
2013-12-02 14:21:00,33.0,25.0,29.87,NNW,343,0.0,4.0,71,0.00,,,0.00,,2013-12-02 20:21:00,
2013-12-02 14:42:00,33.0,25.0,29.87,North,352,0.0,3.0,72,0.00,,,0.00,,2013-12-02 20:42:00,
2013-12-02 14:52:00,32.0,24.0,29.86,SE,146,0.0,3.0,72,0.00,,,0.00,,2013-12-02 20:52:00,
2013-12-02 15:11:00,32.0,25.0,29.86,East,93,0.0,2.0,75,0.00,,,0.00,,2013-12-02 21:11:00,
2013-12-02 15:21:00,32.0,26.0,29.86,NE,55,0.0,2.0,77,0.00,,,0.00,,2013-12-02 21:21:00,
2013-12-02 15:43:00,32.0,25.0,29.86,SE,126,0.0,2.0,76,0.00,,,0.00,,2013-12-02 21:43:00,
2013-12-02 15:53:00,32.0,26.0,29.86,SE,143,0.0,2.0,77,0.00,,,0.00,,2013-12-02 21:53:00,
2013-12-02 16:13:00,31.0,25.0,29.87,East,89,0.0,1.0,78,0.00,,,0.00,,2013-12-02 22:13:00,
2013-12-02 16:23:00,31.0,25.0,29.86,North,360,0.0,3.0,79,0.00,,,0.00,,2013-12-02 22:23:00,
2013-12-02 16:43:00,31.0,26.0,29.86,NE,49,0.0,2.0,80,0.00,,,0.00,,2013-12-02 22:43:00,
2013-12-02 16:53:00,30.0,25.0,29.86,NNE,20,0.0,1.0,81,0.00,,,0.00,,2013-12-02 22:53:00,
2013-12-02 17:12:00,30.0,25.0,29.87,East,82,0.0,3.0,82,0.00,,,0.00,,2013-12-02 23:12:00,
2013-12-02 17:22:00,30.0,25.0,29.87,North,4,0.0,2.0,82,0.00,,,0.00,,2013-12-02 23:22:00,
2013-12-02 17:42:00,30.0,25.0,29.88,East,100,0.0,2.0,83,0.00,,,0.00,,2013-12-02 23:42:00,
2013-12-02 17:53:00,30.0,25.0,29.88,East,96,0.0,1.0,83,0.00,,,0.00,,2013-12-02 23:53:00,
2013-12-02 18:11:00,30.0,26.0,29.88,ENE,64,0.0,3.0,84,0.00,,,0.00,,2013-12-03 00:11:00,
2013-12-02 18:21:00,30.0,25.0,29.88,North,352,0.0,4.0,83,0.00,,,0.00,,2013-12-03 00:21:00,
2013-12-02 18:42:00,30.0,25.0,29.88,ESE,110,0.0,2.0,82,0.00,,,0.00,,2013-12-03 00:42:00,
2013-12-02 18:52:00,30.0,25.0,29.89,ESE,115,0.0,4.0,82,0.00,,,0.00,,2013-12-03 00:52:00,
2013-12-02 19:11:00,30.0,25.0,29.88,ENE,68,0.0,2.0,82,0.00,,,0.00,,2013-12-03 01:11:00,
2013-12-02 19:21:00,30.0,25.0,29.89,ENE,66,0.0,3.0,83,0.00,,,0.00,,2013-12-03 01:21:00,
2013-12-02 19:42:00,30.0,25.0,29.89,East,79,0.0,4.0,83,0.00,,,0.00,,2013-12-03 01:42:00,
2013-12-02 19:52:00,30.0,26.0,29.89,East,101,0.0,3.0,84,0.00,,,0.00,,2013-12-03 01:52:00,
2013-12-02 20:11:00,30.0,26.0,29.89,NE,42,1.0,3.0,84,0.00,,,0.00,,2013-12-03 02:11:00,
2013-12-02 20:21:00,29.0,25.0,29.89,NE,49,0.0,2.0,86,0.00,,,0.00,,2013-12-03 02:21:00,
2013-12-02 20:42:00,29.0,25.0,29.89,ESE,103,0.0,3.0,86,0.00,,,0.00,,2013-12-03 02:42:00,
2013-12-02 20:52:00,29.0,25.0,29.89,ENE,77,1.0,4.0,86,0.00,,,0.00,,2013-12-03 02:52:00,
2013-12-02 21:21:00,29.0,25.0,29.89,NNW,343,0.0,3.0,86,0.00,,,0.00,,2013-12-03 03:21:00,
2013-12-02 21:43:00,29.0,25.0,29.89,ESE,103,0.0,2.0,86,0.00,,,0.00,,2013-12-03 03:43:00,
2013-12-02 21:53:00,29.0,25.0,29.89,NE,50,1.0,4.0,86,0.00,,,0.00,,2013-12-03 03:53:00,
2013-12-02 22:13:00,28.0,24.0,29.88,ESE,111,2.0,5.0,86,0.00,,,0.00,,2013-12-03 04:13:00,
2013-12-02 22:23:00,28.0,25.0,29.88,ENE,67,0.0,4.0,87,0.00,,,0.00,,2013-12-03 04:23:00,
2013-12-02 22:43:00,28.0,25.0,29.88,East,79,1.0,3.0,87,0.00,,,0.00,,2013-12-03 04:43:00,
2013-12-02 22:52:00,28.0,24.0,29.88,NE,51,1.0,4.0,86,0.00,,,0.00,,2013-12-03 04:52:00,
2013-12-02 23:12:00,28.0,24.0,29.88,SE,140,0.0,4.0,85,0.00,,,0.00,,2013-12-03 05:12:00,
2013-12-02 23:22:00,28.0,24.0,29.88,NW,324,0.0,2.0,84,0.00,,,0.00,,2013-12-03 05:22:00,
2013-12-02 23:42:00,28.0,24.0,29.88,ESE,116,0.0,3.0,84,0.00,,,0.00,,2013-12-03 05:42:00,
2013-12-02 23:53:00,28.0,24.0,29.89,NE,56,0.0,3.0,85,0.00,,,0.00,,2013-12-03 05:53:00,